Weather History for Appleton, WI

Change the Weather History Date:

Thursday, January 2, 2014

  Actual Average Record
Temperature  
Mean Temperature 2 °F -  
Max Temperature 8 °F 25 °F 44 °F (1950)
Min Temperature -5 °F 8 °F -19 °F (1979)
Degree Days  
Heating Degree Days 64    
Moisture  
Dew Point -5 °F    
Average Humidity 66    
Maximum Humidity 78    
Minimum Humidity 48    
Precipitation  
Precipitation 0.00 in - - ()
Sea Level Pressure  
Sea Level Pressure 30.31 in    
Wind  
Wind Speed 13 mph (North)    
Max Wind Speed 17 mph    
Max Gust Speed 23 mph    
Visibility 9 miles    
Events Snow    
Averages and records for this station are not official NWS values.
T = Trace of Precipitation, MM = Missing Value Source: NWS Daily Summary

Daily Weather History Graph

Daily Weather History Graph

Search for Another Location

Airport:

Trip Planner

Search our weather history database for the weather conditions in past years. The results will help you decide how hot, cold, wet, or windy it might be!

Date:

Astronomy

Jan. 02, 2014 Rise Set
Actual Time 7:29 AM CST 4:26 PM CST
Civil Twilight 6:56 AM CST 4:59 PM CST
Nautical Twilight 6:20 AM CST 5:36 PM CST
Astronomical Twilight 5:45 AM CST 6:11 PM CST
Moon 8:06 AM CST (1/2) 6:28 PM CST (1/2)
Length of Visible Light 10h 03m
Length of Day
8h 57m
Waxing Crescent, 3% of the Moon is Illuminated
Jan 2
Waxing Crescent
Jan 7
First Quarter
Jan 15
Full
Jan 23
Last Quarter
Jan 30
New

Hourly Weather History & Observations

Time (CST) Temp. Windchill Dew Point Humidity Pressure Visibility Wind Dir Wind Speed Gust Speed Precip Events Conditions
12:15 AM 8.6 °F -7.7 °F -0.4 °F 67% 30.30 in 10.0 mi NNE 13.8 mph - N/A   Overcast
12:35 AM 6.8 °F -11.3 °F -0.4 °F 72% 30.29 in 7.0 mi North 16.1 mph - N/A   Overcast
12:55 AM 6.8 °F -11.3 °F -0.4 °F 72% 30.29 in 5.0 mi North 16.1 mph - N/A   Haze
1:15 AM 6.8 °F -11.8 °F -0.4 °F 72% 30.29 in 5.0 mi NNE 17.3 mph - N/A Snow Light Snow
1:35 AM 5.0 °F -13.0 °F -0.4 °F 78% 30.29 in 4.0 mi NNE 15.0 mph - N/A Snow Light Snow
1:55 AM 5.0 °F -12.3 °F -0.4 °F 78% 30.29 in 4.0 mi NNE 13.8 mph - N/A Snow Light Snow
2:15 AM 5.0 °F -13.0 °F -0.4 °F 78% 30.29 in 4.0 mi NNE 15.0 mph - N/A Snow Light Snow
2:35 AM 5.0 °F -13.6 °F -0.4 °F 78% 30.29 in 7.0 mi NNE 16.1 mph - N/A   Overcast
2:55 AM 5.0 °F -11.6 °F -2.2 °F 72% 30.29 in 7.0 mi NNE 12.7 mph - N/A   Overcast
3:15 AM 5.0 °F -12.3 °F -2.2 °F 72% 30.28 in 7.0 mi North 13.8 mph - N/A   Overcast
3:35 AM 5.0 °F -13.0 °F -2.2 °F 72% 30.28 in 7.0 mi NNE 15.0 mph - N/A   Overcast
3:55 AM 5.0 °F -13.0 °F -4.0 °F 66% 30.28 in 10.0 mi NNE 15.0 mph - N/A   Overcast
4:15 AM 5.0 °F -14.2 °F -4.0 °F 66% 30.27 in 10.0 mi North 17.3 mph - N/A   Overcast
4:35 AM 5.0 °F -13.0 °F -4.0 °F 66% 30.27 in 10.0 mi North 15.0 mph - N/A   Overcast
4:55 AM 5.0 °F -13.6 °F -4.0 °F 66% 30.27 in 10.0 mi North 16.1 mph - N/A   Overcast
5:15 AM 5.0 °F -14.2 °F -4.0 °F 66% 30.28 in 10.0 mi North 17.3 mph - N/A   Overcast
5:20 AM 3.2 °F -15.9 °F -5.8 °F 66% 30.27 in 10.0 mi North 16.1 mph - N/A   Overcast
5:45 AM 3.2 °F -15.9 °F -5.8 °F 66% 30.28 in 10.0 mi North 16.1 mph - N/A   Overcast
6:45 AM 3.2 °F -14.6 °F -5.8 °F 66% 30.29 in 10.0 mi North 13.8 mph - N/A   Overcast
7:45 AM 3.2 °F -15.3 °F -5.8 °F 66% 30.29 in 7.0 mi North 15.0 mph 23.0 mph N/A   Overcast
8:10 AM 3.2 °F -14.6 °F -5.8 °F 66% 30.30 in 5.0 mi North 13.8 mph - N/A   Mostly Cloudy
8:45 AM 3.2 °F -14.6 °F -5.8 °F 66% 30.32 in 10.0 mi North 13.8 mph - N/A   Mostly Cloudy
9:45 AM 3.2 °F -13.1 °F -2.2 °F 78% 30.33 in 5.0 mi North 11.5 mph - N/A Snow Light Snow
10:45 AM 5.0 °F -13.6 °F -4.0 °F 66% 30.33 in 10.0 mi North 16.1 mph - N/A   Scattered Clouds
11:45 AM 6.8 °F -7.8 °F -2.2 °F 67% 30.31 in 10.0 mi North 10.4 mph - N/A   Scattered Clouds
12:45 PM 8.6 °F -7.0 °F -4.0 °F 57% 30.30 in 10.0 mi North 12.7 mph - N/A   Scattered Clouds
1:45 PM 3.2 °F -12.2 °F -5.8 °F 66% 30.29 in 10.0 mi NNW 10.4 mph - N/A   Scattered Clouds
2:45 PM 8.6 °F -5.5 °F -5.8 °F 52% 30.32 in 10.0 mi NNW 10.4 mph - N/A   Scattered Clouds
3:45 PM 8.6 °F -3.7 °F -7.6 °F 48% 30.34 in 10.0 mi NW 8.1 mph - N/A   Scattered Clouds
4:45 PM 5.0 °F -6.9 °F -9.4 °F 52% 30.35 in 10.0 mi NW 6.9 mph - N/A   Scattered Clouds
5:45 PM 3.2 °F -7.8 °F -11.2 °F 51% 30.36 in 10.0 mi WNW 5.8 mph - N/A   Partly Cloudy
6:45 PM 1.4 °F -11.3 °F -11.2 °F 56% 30.36 in 10.0 mi WNW 6.9 mph - N/A   Partly Cloudy
7:45 PM -0.4 °F -14.7 °F -11.2 °F 60% 30.37 in 10.0 mi WNW 8.1 mph - N/A   Clear
8:45 PM -0.4 °F -13.4 °F -11.2 °F 60% 30.36 in 10.0 mi NNW 6.9 mph - N/A   Clear
9:45 PM -0.4 °F -13.4 °F -11.2 °F 60% 30.37 in 10.0 mi NNW 6.9 mph - N/A   Clear
10:45 PM - - - N/A% 30.38 in 10.0 mi NNW 5.8 mph - N/A   Clear
11:15 PM -5.8 °F -16.7 °F -13.0 °F 71% 30.36 in 10.0 mi NW 4.6 mph - N/A   Clear
11:35 PM -4.0 °F -14.6 °F -13.0 °F 65% 30.36 in 10.0 mi NW 4.6 mph - N/A   Clear
11:55 PM -4.0 °F -12.4 °F -11.2 °F 71% 30.36 in 10.0 mi WNW 3.5 mph - N/A   Clear